Weather in Fatima

Portugal     39°37′16″N   8°39′29″W
temp.,
°C
wind,
m/s
gust,
m/s
humid.,
%
clouds,
%
prec.,
mm/h
press.,
hPa
HPBL,
m
7 august, sun
sun701:00+15nw22965 0.0 101621
04:00+15ene11930 0.0 101511
07:00+14sse12950 0.0 101619
10:00+22sse23550 0.0 1016511
13:00+29s34280 0.0 10151146
16:00+31ssw34260 0.0 10131534
19:00+26w33440 0.0 1013603
22:00+16nw23900 0.0 101563
8 august, mon
mon801:00+15nnw22940 0.0 101528
04:00+15sw01900 0.0 101411
07:00+15w00920 0.0 101511
10:00+23sse22550 0.0 1016546
13:00+29sse33320 0.0 10151287
16:00+32wsw34250 0.0 10131673
19:00+24nw44570 0.0 1015452
22:00+16nnw33910 0.0 101667
9 august, tue
tue901:00+16nnw22890 0.0 101541
04:00+16nw00830 0.0 101511
07:00+16ene00840 0.0 101511
10:00+25sse11450 0.0 1015452
13:00+32sse33270 0.0 10141364
16:00+35ssw24180 0.0 10121930
19:00+27wnw45460 0.0 1012388
22:00+18nw23840 0.0 101452
10 august, wed
wed1001:00+19n11700 0.0 101411
04:00+19ese11670 0.1 101312
07:00+18se11720 0.1 101315
10:00+27se35420 0.0 1013570
13:00+34s58280 0.0 10122120
16:00+33wsw563310 0.0 10101410
19:00+24wnw34590 0.1 1011427
22:00+18nw22890 0.0 101360
11 august, thu
thu1101:00+16sw11900 0.0 101311
04:00+15s22962 0.0 101342
07:00+14se229940 0.0 101449
10:00+20sse347013 0.0 1014594
13:00+28s34380 0.0 10141391
16:00+30wsw35330 0.0 10121688
19:00+24wnw34520 0.0 1013547
22:00+16nw23880 0.0 101555